Location: Izdebno
(52.6670°N, 16.2170°E)
Time: 05:23:09
(UTC+01:00)

Envisat - Pass Details

Date: 09 October 2024
Orbit: 761 x 763 km, 98.3° (Epoch: 10 November)

Event Time Altitude Azimuth Distance (km) Brightness Sun altitude
Rises 04:16:24 0° 15° (NNE) 3,241 6.8 -26.6°
Reaches altitude 10° 04:18:43 10° 16° (NNE) 2,310 6.0 -26.2°
Maximum altitude 04:23:49 85° 105° (ESE) 773 2.9 -25.6°
Enters shadow 04:24:28 68° 183° (S) 821 2.9 -25.5°
